owner,sensor,date,latitude,longitude,vertical_datum,sea_water_practical_salinity,qcFlag 
DISL,ioos:station:DISL:KATA:1,2014-04-01T00:00:00Z,30.2583,-88.2131,3.823,21.97,1111122 
DISL,ioos:station:DISL:KATA:1,2014-04-01T00:30:00Z,30.2583,-88.2131,3.826,22.02,1111122 
DISL,ioos:station:DISL:KATA:1,2014-04-01T01:00:00Z,30.2583,-88.2131,3.846,21.45,1111122 
DISL,ioos:station:DISL:KATA:1,2014-04-01T01:30:00Z,30.2583,-88.2131,3.87,21.13,1111122 
DISL,ioos:station:DISL:KATA:1,2014-04-01T02:00:00Z,30.2583,-88.2131,3.902,21.13,1111122 
DISL,ioos:station:DISL:KATA:1,2014-04-01T02:30:00Z,30.2583,-88.2131,3.925,20.56,1111122 
DISL,ioos:station:DISL:KATA:1,2014-04-01T03:00:00Z,30.2583,-88.2131,3.944,20.41,1111122 
DISL,ioos:station:DISL:KATA:1,2014-04-01T03:30:00Z,30.2583,-88.2131,3.965,20.4,1111122 
DISL,ioos:station:DISL:KATA:1,2014-04-01T04:00:00Z,30.2583,-88.2131,3.974,21.43,1111122 
DISL,ioos:station:DISL:KATA:1,2014-04-01T04:30:00Z,30.2583,-88.2131,3.988,21.85,1111122 
DISL,ioos:station:DISL:KATA:1,2014-04-01T05:00:00Z,30.2583,-88.2131,4.015,22.16,1111122 
DISL,ioos:station:DISL:KATA:1,2014-04-01T05:30:00Z,30.2583,-88.2131,4.032,22.37,1111122 
DISL,ioos:station:DISL:KATA:1,2014-04-01T06:00:00Z,30.2583,-88.2131,4.058,22.59,1111122 
DISL,ioos:station:DISL:KATA:1,2014-04-01T06:30:00Z,30.2583,-88.2131,4.073,22.81,1111122 
DISL,ioos:station:DISL:KATA:1,2014-04-01T07:00:00Z,30.2583,-88.2131,4.09,22.79,1111122 
DISL,ioos:station:DISL:KATA:1,2014-04-01T07:30:00Z,30.2583,-88.2131,4.109,22.84,1111122 
DISL,ioos:station:DISL:KATA:1,2014-04-01T08:00:00Z,30.2583,-88.2131,4.122,22.93,1111122 
DISL,ioos:station:DISL:KATA:1,2014-04-01T08:30:00Z,30.2583,-88.2131,4.126,23.05,1111122 
DISL,ioos:station:DISL:KATA:1,2014-04-01T09:00:00Z,30.2583,-88.2131,4.132,23.1,1111122 
DISL,ioos:station:DISL:KATA:1,2014-04-01T09:30:00Z,30.2583,-88.2131,4.127,23.14,1111122 
DISL,ioos:station:DISL:KATA:1,2014-04-01T10:00:00Z,30.2583,-88.2131,4.132,23.25,1111122 
DISL,ioos:station:DISL:KATA:1,2014-04-01T10:30:00Z,30.2583,-88.2131,4.146,23.39,1111122 
DISL,ioos:station:DISL:KATA:1,2014-04-01T11:00:00Z,30.2583,-88.2131,4.167,23.55,1111122 
DISL,ioos:station:DISL:KATA:1,2014-04-01T11:30:00Z,30.2583,-88.2131,4.173,23.61,1111122 
DISL,ioos:station:DISL:KATA:1,2014-04-01T12:00:00Z,30.2583,-88.2131,4.187,23.7,1111122 
DISL,ioos:station:DISL:KATA:1,2014-04-01T12:30:00Z,30.2583,-88.2131,4.213,23.82,1111122 
DISL,ioos:station:DISL:KATA:1,2014-04-01T13:00:00Z,30.2583,-88.2131,4.236,23.95,1111122 
DISL,ioos:station:DISL:KATA:1,2014-04-01T13:30:00Z,30.2583,-88.2131,4.272,24.05,1111122 
DISL,ioos:station:DISL:KATA:1,2014-04-01T14:00:00Z,30.2583,-88.2131,4.297,24.13,1111122 
DISL,ioos:station:DISL:KATA:1,2014-04-01T14:30:00Z,30.2583,-88.2131,4.319,24.2,1111122 
DISL,ioos:station:DISL:KATA:1,2014-04-01T15:00:00Z,30.2583,-88.2131,4.334,24.46,1111122 
DISL,ioos:station:DISL:KATA:1,2014-04-01T15:30:00Z,30.2583,-88.2131,4.333,24.6,1111122 
DISL,ioos:station:DISL:KATA:1,2014-04-01T16:00:00Z,30.2583,-88.2131,4.315,24.67,1111122 
DISL,ioos:station:DISL:KATA:1,2014-04-01T16:30:00Z,30.2583,-88.2131,4.303,24.81,1111122 
DISL,ioos:station:DISL:KATA:1,2014-04-01T17:00:00Z,30.2583,-88.2131,4.3,24.91,1111122 
DISL,ioos:station:DISL:KATA:1,2014-04-01T17:30:00Z,30.2583,-88.2131,4.291,25.04,1111122 
DISL,ioos:station:DISL:KATA:1,2014-04-01T18:00:00Z,30.2583,-88.2131,4.291,25.2,1111122 
DISL,ioos:station:DISL:KATA:1,2014-04-01T18:30:00Z,30.2583,-88.2131,4.293,25.26,1111122 
DISL,ioos:station:DISL:KATA:1,2014-04-01T19:00:00Z,30.2583,-88.2131,4.28,25.3,1111122 
DISL,ioos:station:DISL:KATA:1,2014-04-01T19:30:00Z,30.2583,-88.2131,4.263,25.32,1111122 
DISL,ioos:station:DISL:KATA:1,2014-04-01T20:00:00Z,30.2583,-88.2131,4.244,25.39,1111122 
DISL,ioos:station:DISL:KATA:1,2014-04-01T20:30:00Z,30.2583,-88.2131,4.214,25.41,1111122 
DISL,ioos:station:DISL:KATA:1,2014-04-01T21:00:00Z,30.2583,-88.2131,4.158,25.45,1111122 
DISL,ioos:station:DISL:KATA:1,2014-04-01T21:30:00Z,30.2583,-88.2131,4.106,25.46,1111122 
DISL,ioos:station:DISL:KATA:1,2014-04-01T22:00:00Z,30.2583,-88.2131,4.047,25.28,1111122 
DISL,ioos:station:DISL:KATA:1,2014-04-01T22:30:00Z,30.2583,-88.2131,3.989,25.23,1111122 
DISL,ioos:station:DISL:KATA:1,2014-04-01T23:00:00Z,30.2583,-88.2131,3.941,25.16,1111122 
DISL,ioos:station:DISL:KATA:1,2014-04-01T23:30:00Z,30.2583,-88.2131,3.897,25.04,1111122 
DISL,ioos:station:DISL:KATA:1,2014-04-02T00:00:00Z,30.2583,-88.2131,3.873,24.77,1111122 
DISL,ioos:station:DISL:KATA:1,2014-04-02T00:30:00Z,30.2583,-88.2131,3.855,25.02,1111122 
DISL,ioos:station:DISL:KATA:1,2014-04-02T01:00:00Z,30.2583,-88.2131,3.848,25.2,1111122 
DISL,ioos:station:DISL:KATA:1,2014-04-02T01:30:00Z,30.2583,-88.2131,3.858,25.29,1111122 
DISL,ioos:station:DISL:KATA:1,2014-04-02T02:00:00Z,30.2583,-88.2131,3.878,25.32,1111122 
DISL,ioos:station:DISL:KATA:1,2014-04-02T02:30:00Z,30.2583,-88.2131,3.899,25.34,1111122 
DISL,ioos:station:DISL:KATA:1,2014-04-02T03:00:00Z,30.2583,-88.2131,3.913,25.4,1111122 
DISL,ioos:station:DISL:KATA:1,2014-04-02T03:30:00Z,30.2583,-88.2131,3.933,25.52,1111122 
DISL,ioos:station:DISL:KATA:1,2014-04-02T04:00:00Z,30.2583,-88.2131,3.954,25.52,1111122 
DISL,ioos:station:DISL:KATA:1,2014-04-02T04:30:00Z,30.2583,-88.2131,3.967,25.52,1111122 
DISL,ioos:station:DISL:KATA:1,2014-04-02T05:00:00Z,30.2583,-88.2131,3.975,25.52,1111122 
DISL,ioos:station:DISL:KATA:1,2014-04-02T05:30:00Z,30.2583,-88.2131,3.984,25.52,1111122 
DISL,ioos:station:DISL:KATA:1,2014-04-02T06:00:00Z,30.2583,-88.2131,4.0,25.55,1111122 
DISL,ioos:station:DISL:KATA:1,2014-04-02T06:30:00Z,30.2583,-88.2131,4.019,25.59,1111122 
DISL,ioos:station:DISL:KATA:1,2014-04-02T07:00:00Z,30.2583,-88.2131,4.041,25.58,1111122 
DISL,ioos:station:DISL:KATA:1,2014-04-02T07:30:00Z,30.2583,-88.2131,4.067,25.51,1111122 
DISL,ioos:station:DISL:KATA:1,2014-04-02T08:00:00Z,30.2583,-88.2131,4.099,25.44,1111122 
DISL,ioos:station:DISL:KATA:1,2014-04-02T08:30:00Z,30.2583,-88.2131,4.124,25.48,1111122 
DISL,ioos:station:DISL:KATA:1,2014-04-02T09:00:00Z,30.2583,-88.2131,4.15,25.52,1111122 
DISL,ioos:station:DISL:KATA:1,2014-04-02T09:30:00Z,30.2583,-88.2131,4.163,25.51,1111122 
DISL,ioos:station:DISL:KATA:1,2014-04-02T10:00:00Z,30.2583,-88.2131,4.169,25.52,1111122 
DISL,ioos:station:DISL:KATA:1,2014-04-02T10:30:00Z,30.2583,-88.2131,4.176,25.5,1111122 
DISL,ioos:station:DISL:KATA:1,2014-04-02T11:00:00Z,30.2583,-88.2131,4.189,25.43,1111122 
DISL,ioos:station:DISL:KATA:1,2014-04-02T11:30:00Z,30.2583,-88.2131,4.205,25.38,1111122 
DISL,ioos:station:DISL:KATA:1,2014-04-02T12:00:00Z,30.2583,-88.2131,4.223,25.35,1111122 
DISL,ioos:station:DISL:KATA:1,2014-04-02T12:30:00Z,30.2583,-88.2131,4.246,25.33,1111122 
DISL,ioos:station:DISL:KATA:1,2014-04-02T13:00:00Z,30.2583,-88.2131,4.273,25.31,1111122 
DISL,ioos:station:DISL:KATA:1,2014-04-02T13:30:00Z,30.2583,-88.2131,4.301,25.3,1111122 
DISL,ioos:station:DISL:KATA:1,2014-04-02T14:00:00Z,30.2583,-88.2131,4.331,25.27,1111122 
DISL,ioos:station:DISL:KATA:1,2014-04-02T14:30:00Z,30.2583,-88.2131,4.354,25.26,1111122 
DISL,ioos:station:DISL:KATA:1,2014-04-02T15:00:00Z,30.2583,-88.2131,4.365,25.23,1111122 
DISL,ioos:station:DISL:KATA:1,2014-04-02T15:30:00Z,30.2583,-88.2131,4.375,25.19,1111122 
DISL,ioos:station:DISL:KATA:1,2014-04-02T16:00:00Z,30.2583,-88.2131,4.377,25.16,1111122 
DISL,ioos:station:DISL:KATA:1,2014-04-02T16:30:00Z,30.2583,-88.2131,4.381,25.18,1111122 
DISL,ioos:station:DISL:KATA:1,2014-04-02T17:00:00Z,30.2583,-88.2131,4.375,25.19,1111122 
DISL,ioos:station:DISL:KATA:1,2014-04-02T17:30:00Z,30.2583,-88.2131,4.355,25.2,1111122 
DISL,ioos:station:DISL:KATA:1,2014-04-02T18:00:00Z,30.2583,-88.2131,4.338,25.22,1111122 
DISL,ioos:station:DISL:KATA:1,2014-04-02T18:30:00Z,30.2583,-88.2131,4.321,25.23,1111122 
DISL,ioos:station:DISL:KATA:1,2014-04-02T19:00:00Z,30.2583,-88.2131,4.301,25.23,1111122 
DISL,ioos:station:DISL:KATA:1,2014-04-02T19:30:00Z,30.2583,-88.2131,4.284,25.23,1111122 
DISL,ioos:station:DISL:KATA:1,2014-04-02T20:00:00Z,30.2583,-88.2131,4.259,25.19,1111122 
DISL,ioos:station:DISL:KATA:1,2014-04-02T20:30:00Z,30.2583,-88.2131,4.229,25.17,1111122 
DISL,ioos:station:DISL:KATA:1,2014-04-02T21:00:00Z,30.2583,-88.2131,4.191,25.16,1111122 
DISL,ioos:station:DISL:KATA:1,2014-04-02T21:30:00Z,30.2583,-88.2131,4.145,25.14,1111122 
DISL,ioos:station:DISL:KATA:1,2014-04-02T22:00:00Z,30.2583,-88.2131,4.102,25.14,1111122 
DISL,ioos:station:DISL:KATA:1,2014-04-02T22:30:00Z,30.2583,-88.2131,4.05,25.16,1111122 
DISL,ioos:station:DISL:KATA:1,2014-04-02T23:00:00Z,30.2583,-88.2131,4.007,25.17,1111122 
DISL,ioos:station:DISL:KATA:1,2014-04-02T23:30:00Z,30.2583,-88.2131,3.958,25.12,1111122 
DISL,ioos:station:DISL:KATA:1,2014-04-03T00:00:00Z,30.2583,-88.2131,3.91,24.85,1111122 
DISL,ioos:station:DISL:KATA:1,2014-04-03T00:30:00Z,30.2583,-88.2131,3.869,25.07,1111122 
DISL,ioos:station:DISL:KATA:1,2014-04-03T01:00:00Z,30.2583,-88.2131,3.845,25.17,1111122 
DISL,ioos:station:DISL:KATA:1,2014-04-03T01:30:00Z,30.2583,-88.2131,3.822,25.2,1111122 
DISL,ioos:station:DISL:KATA:1,2014-04-03T02:00:00Z,30.2583,-88.2131,3.814,25.19,1111122 
DISL,ioos:station:DISL:KATA:1,2014-04-03T02:30:00Z,30.2583,-88.2131,3.818,25.18,1111122 
DISL,ioos:station:DISL:KATA:1,2014-04-03T03:00:00Z,30.2583,-88.2131,3.831,25.12,1111122 
DISL,ioos:station:DISL:KATA:1,2014-04-03T03:30:00Z,30.2583,-88.2131,3.846,25.06,1111122 
DISL,ioos:station:DISL:KATA:1,2014-04-03T04:00:00Z,30.2583,-88.2131,3.868,25.0,1111122 
DISL,ioos:station:DISL:KATA:1,2014-04-03T04:30:00Z,30.2583,-88.2131,3.895,24.98,1111122 
DISL,ioos:station:DISL:KATA:1,2014-04-03T05:00:00Z,30.2583,-88.2131,3.919,24.98,1111122 
DISL,ioos:station:DISL:KATA:1,2014-04-03T05:30:00Z,30.2583,-88.2131,3.943,24.82,1111122 
DISL,ioos:station:DISL:KATA:1,2014-04-03T06:00:00Z,30.2583,-88.2131,3.958,24.91,1111122 
DISL,ioos:station:DISL:KATA:1,2014-04-03T06:30:00Z,30.2583,-88.2131,3.982,25.17,1111122 
DISL,ioos:station:DISL:KATA:1,2014-04-03T07:00:00Z,30.2583,-88.2131,4.008,25.17,1111122 
DISL,ioos:station:DISL:KATA:1,2014-04-03T07:30:00Z,30.2583,-88.2131,4.026,25.11,1111122 
DISL,ioos:station:DISL:KATA:1,2014-04-03T08:00:00Z,30.2583,-88.2131,4.043,25.05,1111122 
DISL,ioos:station:DISL:KATA:1,2014-04-03T08:30:00Z,30.2583,-88.2131,4.058,24.91,1111122 
DISL,ioos:station:DISL:KATA:1,2014-04-03T09:00:00Z,30.2583,-88.2131,4.081,24.48,1111122 
DISL,ioos:station:DISL:KATA:1,2014-04-03T09:30:00Z,30.2583,-88.2131,4.101,24.07,1111122 
DISL,ioos:station:DISL:KATA:1,2014-04-03T10:00:00Z,30.2583,-88.2131,4.127,24.19,1111122 
DISL,ioos:station:DISL:KATA:1,2014-04-03T10:30:00Z,30.2583,-88.2131,4.142,24.77,1111122 
DISL,ioos:station:DISL:KATA:1,2014-04-03T11:00:00Z,30.2583,-88.2131,4.158,25.13,1111122 
DISL,ioos:station:DISL:KATA:1,2014-04-03T11:30:00Z,30.2583,-88.2131,4.182,25.2,1111122 
DISL,ioos:station:DISL:KATA:1,2014-04-03T12:00:00Z,30.2583,-88.2131,4.2,25.22,1111122 
DISL,ioos:station:DISL:KATA:1,2014-04-03T12:30:00Z,30.2583,-88.2131,4.227,25.26,1111122 
DISL,ioos:station:DISL:KATA:1,2014-04-03T13:00:00Z,30.2583,-88.2131,4.251,25.25,1111122 
DISL,ioos:station:DISL:KATA:1,2014-04-03T13:30:00Z,30.2583,-88.2131,4.275,25.23,1111122 
DISL,ioos:station:DISL:KATA:1,2014-04-03T14:00:00Z,30.2583,-88.2131,4.293,25.2,1111122 
DISL,ioos:station:DISL:KATA:1,2014-04-03T14:30:00Z,30.2583,-88.2131,4.314,25.17,1111122 
DISL,ioos:station:DISL:KATA:1,2014-04-03T15:00:00Z,30.2583,-88.2131,4.339,25.14,1111122 
DISL,ioos:station:DISL:KATA:1,2014-04-03T15:30:00Z,30.2583,-88.2131,4.361,25.09,1111122 
DISL,ioos:station:DISL:KATA:1,2014-04-03T16:00:00Z,30.2583,-88.2131,4.386,25.09,1111122 
DISL,ioos:station:DISL:KATA:1,2014-04-03T16:30:00Z,30.2583,-88.2131,4.406,25.07,1111122 
DISL,ioos:station:DISL:KATA:1,2014-04-03T17:00:00Z,30.2583,-88.2131,4.419,25.04,1111122 
DISL,ioos:station:DISL:KATA:1,2014-04-03T17:30:00Z,30.2583,-88.2131,4.417,24.97,1111122 
DISL,ioos:station:DISL:KATA:1,2014-04-03T18:00:00Z,30.2583,-88.2131,4.404,24.89,1111122 
DISL,ioos:station:DISL:KATA:1,2014-04-03T18:30:00Z,30.2583,-88.2131,4.386,24.67,1111122 
DISL,ioos:station:DISL:KATA:1,2014-04-03T19:00:00Z,30.2583,-88.2131,4.374,24.44,1111122 
DISL,ioos:station:DISL:KATA:1,2014-04-03T19:30:00Z,30.2583,-88.2131,4.349,24.87,1111122 
DISL,ioos:station:DISL:KATA:1,2014-04-03T20:00:00Z,30.2583,-88.2131,4.323,24.86,1111122 
DISL,ioos:station:DISL:KATA:1,2014-04-03T20:30:00Z,30.2583,-88.2131,4.303,24.92,1111122 
DISL,ioos:station:DISL:KATA:1,2014-04-03T21:00:00Z,30.2583,-88.2131,4.271,24.91,1111122 
DISL,ioos:station:DISL:KATA:1,2014-04-03T21:30:00Z,30.2583,-88.2131,4.235,24.83,1111122 
DISL,ioos:station:DISL:KATA:1,2014-04-03T22:00:00Z,30.2583,-88.2131,4.205,24.8,1111122 
DISL,ioos:station:DISL:KATA:1,2014-04-03T22:30:00Z,30.2583,-88.2131,4.17,24.78,1111122 
DISL,ioos:station:DISL:KATA:1,2014-04-03T23:00:00Z,30.2583,-88.2131,4.139,24.81,1111122 
DISL,ioos:station:DISL:KATA:1,2014-04-03T23:30:00Z,30.2583,-88.2131,4.101,24.87,1111122 
DISL,ioos:station:DISL:KATA:1,2014-04-04T00:00:00Z,30.2583,-88.2131,4.072,24.85,1111122 
DISL,ioos:station:DISL:KATA:1,2014-04-04T00:30:00Z,30.2583,-88.2131,4.036,24.73,1111122 
DISL,ioos:station:DISL:KATA:1,2014-04-04T01:00:00Z,30.2583,-88.2131,3.993,24.85,1111122 
DISL,ioos:station:DISL:KATA:1,2014-04-04T01:30:00Z,30.2583,-88.2131,3.961,24.89,1111122 
DISL,ioos:station:DISL:KATA:1,2014-04-04T02:00:00Z,30.2583,-88.2131,3.931,24.89,1111122 
DISL,ioos:station:DISL:KATA:1,2014-04-04T02:30:00Z,30.2583,-88.2131,3.913,24.85,1111122 
DISL,ioos:station:DISL:KATA:1,2014-04-04T03:00:00Z,30.2583,-88.2131,3.913,24.81,1111122 
DISL,ioos:station:DISL:KATA:1,2014-04-04T03:30:00Z,30.2583,-88.2131,3.932,24.72,1111122 
DISL,ioos:station:DISL:KATA:1,2014-04-04T04:00:00Z,30.2583,-88.2131,3.962,24.63,1111122 
DISL,ioos:station:DISL:KATA:1,2014-04-04T04:30:00Z,30.2583,-88.2131,3.985,24.63,1111122 
DISL,ioos:station:DISL:KATA:1,2014-04-04T05:00:00Z,30.2583,-88.2131,4.009,24.56,1111122 
DISL,ioos:station:DISL:KATA:1,2014-04-04T05:30:00Z,30.2583,-88.2131,4.029,24.58,1111122 
DISL,ioos:station:DISL:KATA:1,2014-04-04T06:00:00Z,30.2583,-88.2131,4.054,24.37,1111122 
DISL,ioos:station:DISL:KATA:1,2014-04-04T06:30:00Z,30.2583,-88.2131,4.069,24.25,1111122 
DISL,ioos:station:DISL:KATA:1,2014-04-04T07:00:00Z,30.2583,-88.2131,4.086,24.27,1111122 
DISL,ioos:station:DISL:KATA:1,2014-04-04T07:30:00Z,30.2583,-88.2131,4.106,24.42,1111122 
DISL,ioos:station:DISL:KATA:1,2014-04-04T08:00:00Z,30.2583,-88.2131,4.121,24.36,1111122 
DISL,ioos:station:DISL:KATA:1,2014-04-04T08:30:00Z,30.2583,-88.2131,4.138,23.7,1111122 
DISL,ioos:station:DISL:KATA:1,2014-04-04T09:00:00Z,30.2583,-88.2131,4.147,23.74,1111122 
DISL,ioos:station:DISL:KATA:1,2014-04-04T09:30:00Z,30.2583,-88.2131,4.168,23.8,1111122 
DISL,ioos:station:DISL:KATA:1,2014-04-04T10:00:00Z,30.2583,-88.2131,4.186,23.78,1111122 
DISL,ioos:station:DISL:KATA:1,2014-04-04T10:30:00Z,30.2583,-88.2131,4.198,23.99,1111122 
DISL,ioos:station:DISL:KATA:1,2014-04-04T11:00:00Z,30.2583,-88.2131,4.215,23.83,1111122 
DISL,ioos:station:DISL:KATA:1,2014-04-04T11:30:00Z,30.2583,-88.2131,4.232,23.6,1111122 
DISL,ioos:station:DISL:KATA:1,2014-04-04T12:00:00Z,30.2583,-88.2131,4.253,23.35,1111122 
DISL,ioos:station:DISL:KATA:1,2014-04-04T12:30:00Z,30.2583,-88.2131,4.284,23.36,1111122 
DISL,ioos:station:DISL:KATA:1,2014-04-04T13:00:00Z,30.2583,-88.2131,4.306,23.78,1111122 
DISL,ioos:station:DISL:KATA:1,2014-04-04T13:30:00Z,30.2583,-88.2131,4.327,23.76,1111122 
DISL,ioos:station:DISL:KATA:1,2014-04-04T14:00:00Z,30.2583,-88.2131,4.343,23.63,1111122 
DISL,ioos:station:DISL:KATA:1,2014-04-04T14:30:00Z,30.2583,-88.2131,4.363,23.57,1111122 
DISL,ioos:station:DISL:KATA:1,2014-04-04T15:00:00Z,30.2583,-88.2131,4.397,23.52,1111122 
DISL,ioos:station:DISL:KATA:1,2014-04-04T15:30:00Z,30.2583,-88.2131,4.423,23.6,1111122 
DISL,ioos:station:DISL:KATA:1,2014-04-04T16:00:00Z,30.2583,-88.2131,4.436,23.52,1111122 
DISL,ioos:station:DISL:KATA:1,2014-04-04T16:30:00Z,30.2583,-88.2131,4.443,23.47,1111122 
DISL,ioos:station:DISL:KATA:1,2014-04-04T17:00:00Z,30.2583,-88.2131,4.456,23.45,1111122 
DISL,ioos:station:DISL:KATA:1,2014-04-04T17:30:00Z,30.2583,-88.2131,4.457,23.48,1111122 
DISL,ioos:station:DISL:KATA:1,2014-04-04T18:00:00Z,30.2583,-88.2131,4.467,23.49,1111122 
DISL,ioos:station:DISL:KATA:1,2014-04-04T18:30:00Z,30.2583,-88.2131,4.463,23.52,1111122 
DISL,ioos:station:DISL:KATA:1,2014-04-04T19:00:00Z,30.2583,-88.2131,4.452,23.57,1111122 
DISL,ioos:station:DISL:KATA:1,2014-04-04T19:30:00Z,30.2583,-88.2131,4.441,23.53,1111122 
DISL,ioos:station:DISL:KATA:1,2014-04-04T20:00:00Z,30.2583,-88.2131,4.414,23.53,1111122 
DISL,ioos:station:DISL:KATA:1,2014-04-04T20:30:00Z,30.2583,-88.2131,4.354,23.55,1111122 
DISL,ioos:station:DISL:KATA:1,2014-04-04T21:00:00Z,30.2583,-88.2131,4.315,23.51,1111122 
DISL,ioos:station:DISL:KATA:1,2014-04-04T21:30:00Z,30.2583,-88.2131,4.283,23.5,1111122 
DISL,ioos:station:DISL:KATA:1,2014-04-04T22:00:00Z,30.2583,-88.2131,4.289,23.68,1111122 
DISL,ioos:station:DISL:KATA:1,2014-04-04T22:30:00Z,30.2583,-88.2131,4.297,23.86,1111122 
DISL,ioos:station:DISL:KATA:1,2014-04-04T23:00:00Z,30.2583,-88.2131,4.296,24.02,1111122 
DISL,ioos:station:DISL:KATA:1,2014-04-04T23:30:00Z,30.2583,-88.2131,4.274,24.06,1111122 
DISL,ioos:station:DISL:KATA:1,2014-04-05T00:00:00Z,30.2583,-88.2131,4.219,24.06,1111122 
DISL,ioos:station:DISL:KATA:1,2014-04-05T00:30:00Z,30.2583,-88.2131,4.193,24.11,1111122 
DISL,ioos:station:DISL:KATA:1,2014-04-05T01:00:00Z,30.2583,-88.2131,4.153,24.13,1111122 
DISL,ioos:station:DISL:KATA:1,2014-04-05T01:30:00Z,30.2583,-88.2131,4.097,24.07,1111122 
DISL,ioos:station:DISL:KATA:1,2014-04-05T02:00:00Z,30.2583,-88.2131,4.057,24.02,1111122 
DISL,ioos:station:DISL:KATA:1,2014-04-05T02:30:00Z,30.2583,-88.2131,4.024,23.89,1111122 
DISL,ioos:station:DISL:KATA:1,2014-04-05T03:00:00Z,30.2583,-88.2131,3.993,23.91,1111122 
DISL,ioos:station:DISL:KATA:1,2014-04-05T03:30:00Z,30.2583,-88.2131,3.975,24.02,1111122 
DISL,ioos:station:DISL:KATA:1,2014-04-05T04:00:00Z,30.2583,-88.2131,3.985,24.02,1111122 
DISL,ioos:station:DISL:KATA:1,2014-04-05T04:30:00Z,30.2583,-88.2131,4.0,24.04,1111122 
DISL,ioos:station:DISL:KATA:1,2014-04-05T05:00:00Z,30.2583,-88.2131,4.025,23.93,1111122 
DISL,ioos:station:DISL:KATA:1,2014-04-05T05:30:00Z,30.2583,-88.2131,4.048,24.07,1111122 
DISL,ioos:station:DISL:KATA:1,2014-04-05T06:00:00Z,30.2583,-88.2131,4.056,24.06,1111122 
DISL,ioos:station:DISL:KATA:1,2014-04-05T06:30:00Z,30.2583,-88.2131,4.035,24.07,1111122 
DISL,ioos:station:DISL:KATA:1,2014-04-05T07:00:00Z,30.2583,-88.2131,4.015,24.03,1111122 
DISL,ioos:station:DISL:KATA:1,2014-04-05T07:30:00Z,30.2583,-88.2131,3.998,24.02,1111122 
DISL,ioos:station:DISL:KATA:1,2014-04-05T08:00:00Z,30.2583,-88.2131,4.008,24.01,1111122 
DISL,ioos:station:DISL:KATA:1,2014-04-05T08:30:00Z,30.2583,-88.2131,4.013,24.14,1111122 
DISL,ioos:station:DISL:KATA:1,2014-04-05T09:00:00Z,30.2583,-88.2131,4.048,24.17,1111122 
DISL,ioos:station:DISL:KATA:1,2014-04-05T09:30:00Z,30.2583,-88.2131,4.053,24.21,1111122 
DISL,ioos:station:DISL:KATA:1,2014-04-05T10:00:00Z,30.2583,-88.2131,4.059,24.23,1111122 
DISL,ioos:station:DISL:KATA:1,2014-04-05T10:30:00Z,30.2583,-88.2131,4.061,24.23,1111122 
DISL,ioos:station:DISL:KATA:1,2014-04-05T11:00:00Z,30.2583,-88.2131,4.062,24.22,1111122 
DISL,ioos:station:DISL:KATA:1,2014-04-05T11:30:00Z,30.2583,-88.2131,4.052,24.22,1111122 
DISL,ioos:station:DISL:KATA:1,2014-04-05T12:00:00Z,30.2583,-88.2131,4.086,24.22,1111122 
DISL,ioos:station:DISL:KATA:1,2014-04-05T12:30:00Z,30.2583,-88.2131,4.09,24.23,1111122 
DISL,ioos:station:DISL:KATA:1,2014-04-05T13:00:00Z,30.2583,-88.2131,4.129,24.24,1111122 
DISL,ioos:station:DISL:KATA:1,2014-04-05T13:30:00Z,30.2583,-88.2131,4.14,24.26,1111122 
DISL,ioos:station:DISL:KATA:1,2014-04-05T14:00:00Z,30.2583,-88.2131,4.142,24.29,1111122 
DISL,ioos:station:DISL:KATA:1,2014-04-05T14:30:00Z,30.2583,-88.2131,4.174,24.36,1111122 
DISL,ioos:station:DISL:KATA:1,2014-04-05T15:00:00Z,30.2583,-88.2131,4.201,24.42,1111122 
DISL,ioos:station:DISL:KATA:1,2014-04-05T15:30:00Z,30.2583,-88.2131,4.22,24.46,1111122 
DISL,ioos:station:DISL:KATA:1,2014-04-05T16:00:00Z,30.2583,-88.2131,4.251,24.5,1111122 
DISL,ioos:station:DISL:KATA:1,2014-04-05T16:30:00Z,30.2583,-88.2131,4.296,24.47,1111122 
DISL,ioos:station:DISL:KATA:1,2014-04-05T17:00:00Z,30.2583,-88.2131,4.331,24.43,1111122 
DISL,ioos:station:DISL:KATA:1,2014-04-05T17:30:00Z,30.2583,-88.2131,4.344,24.39,1111122 
DISL,ioos:station:DISL:KATA:1,2014-04-05T18:00:00Z,30.2583,-88.2131,4.363,24.37,1111122 
DISL,ioos:station:DISL:KATA:1,2014-04-05T18:30:00Z,30.2583,-88.2131,4.39,24.39,1111122 
DISL,ioos:station:DISL:KATA:1,2014-04-05T19:00:00Z,30.2583,-88.2131,4.392,24.4,1111122 
DISL,ioos:station:DISL:KATA:1,2014-04-05T19:30:00Z,30.2583,-88.2131,4.424,24.41,1111122 
DISL,ioos:station:DISL:KATA:1,2014-04-05T20:00:00Z,30.2583,-88.2131,4.412,24.42,1111122 
DISL,ioos:station:DISL:KATA:1,2014-04-05T20:30:00Z,30.2583,-88.2131,4.38,24.44,1111122 
DISL,ioos:station:DISL:KATA:1,2014-04-05T21:00:00Z,30.2583,-88.2131,4.371,24.43,1111122 
DISL,ioos:station:DISL:KATA:1,2014-04-05T21:30:00Z,30.2583,-88.2131,4.352,24.45,1111122 
DISL,ioos:station:DISL:KATA:1,2014-04-05T22:00:00Z,30.2583,-88.2131,4.312,24.46,1111122 
DISL,ioos:station:DISL:KATA:1,2014-04-05T22:30:00Z,30.2583,-88.2131,4.287,24.44,1111122 
DISL,ioos:station:DISL:KATA:1,2014-04-05T23:00:00Z,30.2583,-88.2131,4.28,24.43,1111122 
DISL,ioos:station:DISL:KATA:1,2014-04-05T23:30:00Z,30.2583,-88.2131,4.239,24.41,1111122 
DISL,ioos:station:DISL:KATA:1,2014-04-06T00:00:00Z,30.2583,-88.2131,4.23,24.38,1111122 
DISL,ioos:station:DISL:KATA:1,2014-04-06T00:30:00Z,30.2583,-88.2131,4.189,24.36,1111122 
DISL,ioos:station:DISL:KATA:1,2014-04-06T01:00:00Z,30.2583,-88.2131,4.135,24.31,1111122 
DISL,ioos:station:DISL:KATA:1,2014-04-06T01:30:00Z,30.2583,-88.2131,4.094,24.23,1111122 
DISL,ioos:station:DISL:KATA:1,2014-04-06T02:00:00Z,30.2583,-88.2131,4.045,24.22,1111122 
DISL,ioos:station:DISL:KATA:1,2014-04-06T02:30:00Z,30.2583,-88.2131,4.009,24.22,1111122 
DISL,ioos:station:DISL:KATA:1,2014-04-06T03:00:00Z,30.2583,-88.2131,3.98,24.22,1111122 
DISL,ioos:station:DISL:KATA:1,2014-04-06T03:30:00Z,30.2583,-88.2131,3.971,24.19,1111122 
DISL,ioos:station:DISL:KATA:1,2014-04-06T04:00:00Z,30.2583,-88.2131,3.963,24.26,1111122 
DISL,ioos:station:DISL:KATA:1,2014-04-06T04:30:00Z,30.2583,-88.2131,3.977,24.23,1111122 
DISL,ioos:station:DISL:KATA:1,2014-04-06T05:00:00Z,30.2583,-88.2131,3.989,24.18,1111122 
DISL,ioos:station:DISL:KATA:1,2014-04-06T05:30:00Z,30.2583,-88.2131,3.991,24.18,1111122 
DISL,ioos:station:DISL:KATA:1,2014-04-06T06:00:00Z,30.2583,-88.2131,3.981,24.11,1111122 
DISL,ioos:station:DISL:KATA:1,2014-04-06T06:30:00Z,30.2583,-88.2131,3.978,24.2,1111122 
DISL,ioos:station:DISL:KATA:1,2014-04-06T07:00:00Z,30.2583,-88.2131,3.976,24.31,1111122 
DISL,ioos:station:DISL:KATA:1,2014-04-06T07:30:00Z,30.2583,-88.2131,3.978,24.35,1111122 
DISL,ioos:station:DISL:KATA:1,2014-04-06T08:00:00Z,30.2583,-88.2131,3.973,24.37,1111122 
DISL,ioos:station:DISL:KATA:1,2014-04-06T08:30:00Z,30.2583,-88.2131,3.979,24.48,1111122 
DISL,ioos:station:DISL:KATA:1,2014-04-06T09:00:00Z,30.2583,-88.2131,4.003,24.59,1111122 
DISL,ioos:station:DISL:KATA:1,2014-04-06T09:30:00Z,30.2583,-88.2131,4.028,24.72,1111122 
DISL,ioos:station:DISL:KATA:1,2014-04-06T10:00:00Z,30.2583,-88.2131,4.049,24.78,1111122 
DISL,ioos:station:DISL:KATA:1,2014-04-06T10:30:00Z,30.2583,-88.2131,4.072,24.82,1111122 
DISL,ioos:station:DISL:KATA:1,2014-04-06T11:00:00Z,30.2583,-88.2131,4.093,24.9,1111122 
DISL,ioos:station:DISL:KATA:1,2014-04-06T11:30:00Z,30.2583,-88.2131,4.132,24.89,1111122 
DISL,ioos:station:DISL:KATA:1,2014-04-06T12:00:00Z,30.2583,-88.2131,4.159,24.84,1111122 
DISL,ioos:station:DISL:KATA:1,2014-04-06T12:30:00Z,30.2583,-88.2131,4.175,24.8,1111122 
DISL,ioos:station:DISL:KATA:1,2014-04-06T13:00:00Z,30.2583,-88.2131,4.193,24.79,1111122 
DISL,ioos:station:DISL:KATA:1,2014-04-06T13:30:00Z,30.2583,-88.2131,4.236,24.77,1111122 
DISL,ioos:station:DISL:KATA:1,2014-04-06T14:00:00Z,30.2583,-88.2131,4.32,24.67,1111122 